Regional Weather Roundup
Issued by NWS

Home | Current Version | Previous Version | Graphics & Text | Print | Product List | Glossary On
Versions: 1 2 3 4 5 6 7 8 9 10 11 12 13 14 15 16 17 18 19 20 21 22 23 24 25 26 27 28 29 30 31 32 33 34 35 36 37 38 39 40 41 42 43 44 45 46 47 48 49 50
000
ASUS43 KBIS 252102
RWRND

NORTH DAKOTA REGIONAL WEATHER ROUNDUP
NATIONAL WEATHER SERVICE BISMARCK ND
400 PM CDT MON JUL 25 2016

NOTE: "FAIR" INDICATES FEW OR NO CLOUDS BELOW 12,000 FEET WITH NO
SIGNIFICANT WEATHER AND/OR OBSTRUCTIONS TO VISIBILITY.


NDZ001>003-009>011-017-252200-
NORTHWEST NORTH DAKOTA

CITY           SKY/WX    TMP DP  RH WIND       PRES   REMARKS
WILLISTON      SUNNY     91  51  25 NE10      29.97S
MINOT          SUNNY     89  63  41 NE8       29.94F HX  90
MINOT AFB      SUNNY     87  63  45 NE9       29.93F
$$

NDZ018>021-031>035-040>046-252200-
SOUTHWEST NORTH DAKOTA

CITY           SKY/WX    TMP DP  RH WIND       PRES   REMARKS
BISMARCK       SUNNY     92  65  40 S9        29.93F HX  94
DICKINSON      SUNNY     91  44  19 CALM      29.96F
GARRISON         N/A     86  65  49 S5        29.95F
HETTINGER ARPT PTSUNNY   99  48  17 VRB6      29.96F HX  95
$$

NDZ004>008-012>016-024-026-027-054-252200-
NORTHEAST NORTH DAKOTA

CITY           SKY/WX    TMP DP  RH WIND       PRES   REMARKS
GRAND FORKS    SUNNY     88  66  48 S7        29.93F HX  90
GRND FRKS AFB  SUNNY     86  66  51 S12       29.94F
DEVILS LAKE    SUNNY     85  68  56 VRB6      29.95F
$$

NDZ022-023-025-028>030-036>039-047>053-252200-
SOUTHEAST NORTH DAKOTA

CITY           SKY/WX    TMP DP  RH WIND       PRES   REMARKS
FARGO          SUNNY     89  61  38 S14G21    29.95F
JAMESTOWN      MOSUNNY   88  62  41 S13G24    29.94F
$$




USA.gov is the U.S. government's official web portal to all federal, state and local government web resources and services.